COSMOS 1829

Satellite information

Favourite Embed

Satellite Type and Status

PAYLOADIN ORBIT

Key statistics

Satellite COSMOS 1829 at a glance.

Uptime

13998

Days in orbit

Revolutions

≈ 12.6

Per day

Orbit

LEO

Low Earth Orbit

Inclination

82.6

Latest

Satellite identification and parameters

Extended collection of information and parameters for COSMOS 1829.

Object identification

Identified? True

Debris? False

Object name: COSMOS 1829

International designator: 1987-026C

Object number (NORAD): 17584

Object ID (CCSDS): 17584

Country: COMMONWEALTH OF INDEPENDENT STATES (CIS)

Current information (Y/N): Y

RCS size: LARGE

Orbital parameters

Period: 114.041 minutes

Inclination: 82.571 deg

SMA: 7789.924 km

Apoapsis: 1412.731 km

Periapsis: 1410.847 km

RAAN: 92.6749 deg

Eccentricy: 0.0001209

Argument of periapsis: 39.0012 deg

Mean anomaly: 321.1166 deg

Mean motion: 12.6270794 rev/day

Mean motion (dot): 0.0000002 rev/day2

B* drag term: 0.000054334 1/REarth

Two-line elements (TLE)

Creation date: July 8, 2025, 2:27 a.m.

Reference frame: TEME

Reference center: EARTH

Epoch: July 7, 2025, 11:10 p.m. UTC

TLE line 0: 0 COSMOS 1829

TLE line 1: 1 17584U 87026C 25188.96576379 .00000020 00000-0 54334-4 0 9999

TLE line 2: 2 17584 82.5710 92.6749 0001209 39.0012 321.1166 12.62707940765965

Live tracking on map

Real-time ground track for satellite COSMOS 1829.

In-orbit conjunctions

A list of the most updated potential collisions computed for object COSMOS 1829.

Target Orbit TCA Probability of collision Miss distance Type
DELTA 1 DEB SSO 2024-11-19 03:00:00 0.0001220053 181.0 (m) DEBRIS
COSMOS 1827 LEO 2024-07-28 17:01:39 0.0001140795 263.0 (m) PAYLOAD

Associated space launch

Second generation store-dump military communications satellite

COSMOS 1829 was lifted into orbit during the mission ‘Tsiklon-3 | Strela-3 19 to 24’, on board a Tsiklon-3 space rocket.

The launch took place on March 13, 1987, 1:11 p.m. from 32/2.

For more information about the launch, click the button.

Launch to space Tsiklon-3 | Strela-3 19 to 24
Tsiklon-3 | Strela-3 19 to 24

Agency: N/A

Status: Launch Successful

Launch date: March 13, 1987, 1:11 p.m. UTC

Rocket: Tsiklon-3

Launch pad: 32/2

Location: Plesetsk Cosmodrome, Russian Federation

...

Latest news about this satellite

There are no fresh news available about this satellite. Check back as we update our databases every day.


Newsletter sign-up

Weekly statistics, charts and insights to help you stay on top of the space industry.